Location: Aghk�ilisa
(40.0189°N, 45.0097°E)
Time: 07:44:41
(UTC+00:00)

FengYun 1-2 T - Pass Details

Date: 21 October 2019
Orbit: 846 x 882 km, 98.7° (Epoch: 11 November)

Event Time Altitude Azimuth Distance (km) Brightness Sun altitude
Rises 15:16:01 0° 165° (SSE) 3,462 7.3 -12.9°
Reaches altitude 10° 15:18:24 10° 166° (SSE) 2,525 6.6 -13.3°
Maximum altitude 15:24:02 88° 257° (WSW) 880 4.3 -14.4°
Drops below altitude 10° 15:29:40 10° 346° (NNW) 2,521 6.8 -15.5°
Sets 15:32:02 0° 347° (NNW) 3,457 7.5 -15.9°
